Details From KCHA - Lovell Field
To KDNN - DALTON MUNI
Flight Number -
Tags decoded
Created
Modified
Stats Distance 25 nm / 46 km
Max Altitude 0 ft / 0 m
Waypoints 2
Social Downloads 1
Likes 0
Share VATSIM

Download

Looking for another format? Having issues loading an existing format? Contact us
Advertisement - Login to hide

Notes

Requested: KCHA KDNN

Route

KCHA KDNN

ID Type Via Altitude Latitude Longitude Leg Dist Tot Dist Heading (true) Name
O KCHA APT - 0 ft / 0 m 35.03565˚ -85.20349˚ - 0 nm - Lovell Field
O KDNN APT - 0 ft / 0 m 34.72294˚ -84.87024˚ 24 nm 24 nm 139° / 139° DALTON MUNI

Altitude Profile

Advertisement - Login to hide

KCHA

Details ICAO KCHA (CHA)
Name Lovell Field
Region United States
Timezone America/New_York (UTC-4.0)
Stats Elevation 683 ft / 208 m (AMSL)
Location 35.035654° -85.203491°
Runways 2
Magnetic Variation 4.783° W

METAR

KCHA 220753Z AUTO 11005KT 10SM SCT038 BKN047 22/17 A3007 RMK AO2 SLP175 T02220167

Decode

TAF

KCHA 220525Z 2206/2306 VRB03KT P6SM FEW050 BKN080 FM220800 18003KT P6SM SCT020 BKN050 FM221500 19005KT P6SM VCSH SCT025 BKN050 FM221800 20006KT P6SM VCTS SCT030 BKN050CB FM230200 35003KT P6SM VCSH OVC040

Decode

Departure Runways

ID Width Length Bearing (true) Bearing (mag) Surface Threshold Offset Overrun Length
02 151 ft / 46 m 7,416 ft / 2,260 m 16.63° 21.41° Asphalt 0 ft / 0 m 49 ft / 15 m
15 151 ft / 46 m 5,580 ft / 1,701 m 145.60° 150.38° Asphalt 105 ft / 32 m 0 ft / 0 m
20 151 ft / 46 m 7,416 ft / 2,260 m 196.63° 201.41° Asphalt 0 ft / 0 m 0 ft / 0 m
33 151 ft / 46 m 5,580 ft / 1,701 m 325.61° 330.39° Asphalt 574 ft / 175 m 0 ft / 0 m

KDNN

Details ICAO KDNN (DNN)
Name DALTON MUNI
Region United States
Timezone America/New_York (UTC-4.0)
Stats Elevation 710 ft / 216 m (AMSL)
Location 34.722936° -84.870242°
Runways 1
Magnetic Variation 4.973° W

METAR

KDNN 220835Z AUTO 15004KT 10SM SCT060 BKN100 21/18 A3010 RMK AO2

Decode

TAF

Not found

Destination Runways

ID Width Length Bearing (true) Bearing (mag) Surface Threshold Offset Overrun Length
14 100 ft / 30 m 5,501 ft / 1,677 m 137.13° 142.10° Asphalt 0 ft / 0 m 0 ft / 0 m
32 100 ft / 30 m 5,501 ft / 1,677 m 317.13° 322.10° Asphalt 0 ft / 0 m 0 ft / 0 m

Approach Navaids

Runway Type Ident Frequency Range Bearing (true) Bearing (mag) Slope Elevation
14 Localiser IDNN 110.90 MHz 18 nm / 33 km 137.39° 142.36° - 710 ft / 216 m (AMSL)
14 Glidescope IDNN 110.90 MHz 10 nm / 19 km 137.13° 142.10° 3.00° 704 ft / 215 m (AMSL)